Regional Weather Roundup
Issued by NWS

Home | Current Version | Previous Version | Graphics & Text | Print | Product List | Glossary On
Versions: 1 2 3 4 5 6 7 8 9 10 11 12 13 14 15 16 17 18 19 20 21 22 23 24 25 26 27 28 29 30 31 32 33 34 35 36 37 38 39 40 41 42 43 44 45 46 47 48 49 50
000
ASUS45 KBOU 010607
RWRCO

WEATHER ROUNDUP FOR COLORADO
NATIONAL WEATHER SERVICE DENVER/BOULDER CO
1200 AM MDT MON SEP 01 2014

NOTE: "FAIR" INDICATES FEW OR NO CLOUDS BELOW 12000 FEET WITH NO
SIGNIFICANT WEATHER AND/OR OBSTRUCTIONS TO VISIBILITY.

COZ001>005-013-030-031-010700-
...NORTHWEST COLORADO...

CITY           SKY/WX    TMP DP  RH WIND       PRES   REMARKS
CRAIG          CLEAR     51  39  63 CALM      30.12R
HAYDEN         CLOUDY    52  37  58 S3        30.12S
MEEKER         CLEAR     50  44  80 NW5       30.13R
MOUNT WERNER   NOT AVBL
STEAMBOAT SPGS CLEAR     47  44  87 CALM      30.14R
WALDEN         CLOUDY    45  36  70 E3        30.18S
$$

COZ006>008-011-010700-
...WEST CENTRAL VALLEYS...

CITY           SKY/WX    TMP DP  RH WIND       PRES   REMARKS
GRAND JUNCTION CLEAR     61  39  44 CALM      30.00R
MONTROSE       CLEAR     59  41  51 SE8       30.07R
EAGLE          CLEAR     55  45  67 E5        30.13R
RIFLE          CLEAR     63  42  46 S5        30.05R
DELTA          CLEAR     73  32  21 W18G25    29.98S
NUCLA          CLEAR     61  34  36 E9        30.10R
$$

COZ017>023-064>068-010700-
...SOUTHWEST COLORADO...

CITY           SKY/WX    TMP DP  RH WIND       PRES   REMARKS
DURANGO        CLEAR     59  36  42 N6        30.10S
CORTEZ         CLEAR     58  41  53 SE10      30.06R
PAGOSA SPRINGS NOT AVBL
TELLURIDE      CLEAR     59  30  33 SW5       30.29R
WOLF CREEK PAS CLEAR     48  27  43 SW31G46   30.44S
$$

COZ009-010-012-014-032>034-037-058>063-010700-
...CENTRAL COLORADO...

CITY           SKY/WX    TMP DP  RH WIND       PRES   REMARKS
ASPEN          MOCLDY    51  41  68 SW8       30.17R
BUENA VISTA    CLEAR     49  34  56 N6        30.14F
COPPER MTN     MOCLDY    45  32  61 W15G23    30.41F
BERTHOUD PASS  FOG       34  32  93 NW12      30.43S VSB<1/4 WCI  25
COTTONWOOD PAS CLEAR     59  25  27 W9G16     30.27S
GUNNISON       MOCLDY    48  36  61 CALM      30.19S
KREMMLING      CLEAR     45  37  76 CALM      30.18R
LEADVILLE      MOCLDY    49  33  54 N6        30.28R
SALIDA         CLEAR     58  35  42 W5        30.19R
SUNLIGHT       CLEAR     45  36  70 SW5       30.36R
WILKERSON PASS NOT AVBL
$$

COZ069>075-010700-
...SAN LUIS VALLEY/SANGRE DE CRISTO MOUNTAINS...

CITY           SKY/WX    TMP DP  RH WIND       PRES   REMARKS
ALAMOSA        CLEAR     53  34  48 SW7       30.14S
LA VETA PASS   NOT AVBL
SAGUACHE       NOT AVBL
$$

COZ035-036-038>040-010700-
...NORTHERN COLORADO FRONT RANGE...

CITY           SKY/WX    TMP DP  RH WIND       PRES   REMARKS
DENVER INTL AP PTCLDY    55  50  83 E8        30.02R
DMNS CITY PARK   N/A     55  54  95 CALM      30.00S
AURORA         PTCLDY    56  48  76 SE8       30.03R
FRONT RANGE AP NOT AVBL
ERIE MUNI ARPT PTCLDY    54  52  94 NW3       30.02R
BOULDER MUN AP CLEAR     55  54  94 W5        30.01R
CENTENNIAL     CLEAR     56  49  77 S5        30.03R
BROOMFIELD     CLEAR     61  52  72 N5        30.03R
FORT COLLINS   CLEAR     55  48  76 E9        30.03R
LONGMONT       CLEAR     58  55  89 NE8       30.04R
$$

COZ041-046-047-076>085-087-088-010700-
...PIKES PEAK/PALMER DIVIDE AND SOUTHERN FOOTHILLS...

CITY           SKY/WX    TMP DP  RH WIND       PRES   REMARKS
COLO. SPRINGS  CLEAR     60  48  64 E6        30.06S
A. F. ACADEMY  CLEAR     50  46  87 NW6       30.08R
ELLICOTT       CLEAR     51  47  86 CALM      30.05S
FALCON         CLEAR     52  47  82 CALM      30.10S
FORT CARSON    CLEAR     59  48  68 SW7       30.03S
LIMON          CLEAR     52  47  83 N6        30.01R
MONUMENT HILL  CLEAR     50  45  81 S8        30.09S
TRINIDAD       CLEAR     58  48  69 N6        30.02R
$$

COZ042>045-048>051-090-091-010700-
...NORTHEAST COLORADO...

CITY           SKY/WX    TMP DP  RH WIND       PRES   REMARKS
GREELEY ARPT   MOCLDY    55  45  67 E5        30.02R
AKRON          CLEAR     55  47  74 N9        29.97F
BURLINGTON     CLEAR     56  52  86 CALM      29.94R
WRAY             N/A     57  51  79 CALM      29.92R
STERLING       CLEAR     54  50  87 NW5       29.95S
HOLYOKE        PTCLDY    59  50  72 NW10      29.92F
FORT MORGAN    CLEAR     57  44  60 N12       29.99R
$$

COZ086-089-092>099-010700-
...SOUTHEAST COLORADO...

CITY           SKY/WX    TMP DP  RH WIND       PRES   REMARKS
PUEBLO         CLEAR     63  48  58 E3        29.98R
LA JUNTA       PTCLDY    62  50  64 NE5       29.95R
LAMAR          CLEAR     58  53  84 CALM      29.89R
SPRINGFIELD      N/A     60  53  77 N8        29.92R
$$



USA.gov is the U.S. government's official web portal to all federal, state and local government web resources and services.